This demonstration page uses our WeatherBlox Daily Observations layout. Learn more.

Left ArrowRight Arrow

Hourly Observations for May 7, 2020

Temp ( °F °C ) Dew Point ( °F °C ) Humidity (%) Winds ( mph kmh ) Pressure ( in mb ) Visibility ( mi km ) Precip ( " mm )
12:52 am 00:52 Clear 46 7.8 42 5.6 86 86 Calm 30.19 1023 10 16 0.00 0.00
1:52 am 01:52 Clear 45 7.2 42 5.6 90 90 Calm 30.19 1022 10 16 0.00 0.00
2:52 am 02:52 Clear 44 6.7 41 5 89 89 Calm 30.19 1022 10 16 0.00 0.00
3:52 am 03:52 Clear 44 6.7 41 5 89 89 Calm 30.18 1022 10 16 0.00 0.00
4:52 am 04:52 Clear 41 5 39 3.9 93 93 Calm 30.18 1022 10 16 0.00 0.00
5:52 am 05:52 Clear 42 5.6 40 4.4 92 92 Calm 30.18 1022 10 16 0.00 0.00
6:52 am 06:52 Sunny 42 5.6 41 5 96 96 Calm 30.19 1023 10 16 0.00 0.00
7:52 am 07:52 Sunny 49 9.4 45 7.2 86 86 SSE 6 9 30.19 1022 10 16 0.00 0.00
8:52 am 08:52 Sunny 55 12.8 46 7.8 72 72 S 7 11 30.17 1022 10 16 0.00 0.00
9:52 am 09:52 Sunny 59 15 44 6.7 58 58 S 9 15 30.15 1021 10 16 0.00 0.00
10:52 am 10:52 Sunny 60 15.6 44 6.7 56 56 VRB 5 7 30.14 1021 10 16 0.00 0.00
11:52 am 11:52 Sunny 62 16.7 45 7.2 54 54 SSW 10 17 30.13 1020 10 16 0.00 0.00
12:52 pm 12:52 Sunny 63 17.2 44 6.7 50 50 S 10 17 30.11 1020 10 16 0.00 0.00
1:52 pm 13:52 Partly Cloudy 64 17.8 43 6.1 46 46 SW 12 19 30.07 1018 10 16 0.00 0.00
2:52 pm 14:52 Mostly Cloudy 65 18.3 47 8.3 52 52 SSW 13 20 30.03 1017 10 16 0.00 0.00
3:52 pm 15:52 Cloudy with Light Rain 60 15.6 49 9.4 67 67 S 7 11 30.01 1016 10 16 0.00 0.00
4:52 pm 16:52 Cloudy with Light Rain 59 15 51 10.6 75 75 S 8 13 30.00 1016 10 16 0.02 0.51
5:52 pm 17:52 Cloudy with Rain 57 13.9 52 11.1 83 83 S 5 7 30.01 1016 6 10 0.03 0.76
6:52 pm 18:52 Cloudy with Light Rain 56 13.3 53 11.7 90 90 ESE 7 11 29.96 1014 7 11 0.12 3.05
7:52 pm 19:52 Cloudy with Light Rain 54 12.2 53 11.7 97 97 SSW 10 17 29.99 1016 7 11 0.09 2.29
8:52 pm 20:52 Cloudy with Light Rain 54 12.2 52 11.1 93 93 SSE 15 24 29.91 1013 10 16 0.25 6.35
9:52 pm 21:52 Cloudy with Light Rain 54 12.2 51 10.6 90 90 SSE 9 15 29.93 1014 10 16 0.00 0.00
10:52 pm 22:52 Cloudy with Light Rain 53 11.7 51 10.6 93 93 SE 8 13 29.89 1012 10 16 0.04 1.02
11:52 pm 23:52 Cloudy 54 12.2 51 10.6 90 90 ESE 10 17 29.85 1011 10 16 0.00 0.00

Powered by AerisWeather